Home   Weather   Al Khor   Past weeks

Flag for Qatar Past Weather in Al Khor, Qatar — Yesterday and Last 2 Weeks

Now
86 °F

Sunny.


Feels Like: 88 °F
Forecast: 81 / 97 °F
Wind: 10 mph from Northwest

Location: Doha International Airport

Current Time: Sep 26, 2016 at 6:45:13 AM

Latest Report: Sep 26, 2016 at 6:00 AM


Visibility: 10 mi

Pressure: 29.71 "Hg

Humidity: 52%

Dew Point: 66 °F

Location of Al KhorLocation

Past Weather in Al Khor — Graph

°F

Al Khor Temperature Yesterday

Maximum temperature yesterday: 104 °F (at 11:00 AM)
Minimum temperature yesterday: 88 °F (at 5:00 AM)
Average temperature yesterday: 95 °F

High & Low Weather Summary for the Past Weeks

 TemperatureHumidityPressure
High108 °F (Sep 23, 12:00 PM)94% (Sep 13, 3:00 AM)29.77 "Hg (Sep 13, 3:00 AM)
Low84 °F (Sep 23, 4:00 AM)15% (Sep 20, 4:00 PM)29.59 "Hg (Sep 12, 2:00 AM)
Average94 °F54%29.66 "Hg
* Reported Sep 11 5:00 AM — Sep 26 5:00 AM, Al Khor, Weather by CustomWeather, © 2016

Note: Actual official high and low records may vary slightly from our data, if they occured in-between our weather recording intervals... More about our weather records

Advertising

Al Khor Weather History for the Previous 24 Hours

Scroll right to see more
 ConditionsComfort  
Time TempWeatherWind HumidityBarometerVisibility
5:00 AM
Mon, Sep 26
86 °FClear.7 mph55%29.71 "Hg10 mi
4:00 AM84 °FClear.8 mph62%29.68 "Hg10 mi
3:00 AM86 °FClear.7 mph55%29.68 "Hg10 mi
2:00 AM86 °FClear.7 mph52%29.68 "Hg10 mi
1:00 AM86 °FClear.8 mph55%29.68 "Hg10 mi
12:00 AM88 °FClear.8 mph46%29.68 "Hg10 mi
11:00 PM
Sun, Sep 25
90 °FPassing clouds.14 mph41%29.68 "HgN/A
10:00 PM91 °FClear.14 mph38%29.68 "Hg10 mi
9:00 PM91 °FClear.13 mph41%29.68 "Hg10 mi
8:00 PM91 °FClear.13 mph46%29.68 "Hg10 mi
7:00 PM93 °FClear.13 mph39%29.65 "Hg10 mi
6:00 PM95 °FClear.15 mph34%29.65 "Hg10 mi
5:00 PM97 °FSunny.17 mph32%29.62 "Hg10 mi
4:00 PM102 °FSunny.21 mph23%29.62 "Hg10 mi
3:00 PM102 °FSunny.23 mph24%29.62 "Hg10 mi
2:00 PM104 °FSunny.25 mph21%29.62 "Hg10 mi
1:00 PM104 °FSunny.26 mph19%29.62 "Hg10 mi
12:00 PM104 °FSunny.22 mph21%29.65 "Hg10 mi
11:00 AM104 °FSunny.22 mph21%29.68 "Hg10 mi
10:00 AM102 °FSunny.20 mph23%29.68 "Hg10 mi
9:00 AM97 °FSunny.15 mph37%29.68 "Hg10 mi
8:00 AM95 °FSunny.14 mph44%29.71 "Hg10 mi
7:00 AM91 °FSunny.15 mph52%29.68 "Hg10 mi
6:00 AM88 °FSunny.9 mph62%29.65 "Hg10 mi
Weather by CustomWeather, © 2016

See weather overviewHow to use our weather pages